Regional Weather Roundup
Issued by NWS Upton, NY

Current Version | Previous Version | Text Only | Print | Product List | Glossary On
Versions: 1 2 3 4 5 6 7 8 9 10 11 12 13 14 15 16 17 18 19 20 21 22 23 24 25 26 27 28 29 30 31 32 33 34 35 36 37 38 39 40 41 42 43 44 45 46 47 48 49 50
253 ASUS41 KOKX 231509 RWROKX REGIONAL WEATHER ROUNDUP NATIONAL WEATHER SERVICE NEW YORK NY 1100 AM EDT FRI JUN 23 2017 NOTE: "FAIR" INDICATES FEW OR NO CLOUDS BELOW 12,000 FEET WITH NO SIGNIFICANT WEATHER AND/OR OBSTRUCTIONS TO VISIBILITY. NYZ071-072-176-178-NJZ106-104-231600- NEW YORK CITY METRO AREA CITY SKY/WX TMP DP RH WIND PRES REMARKS Central Park CLOUDY 80 73 79 W5 29.80F Bronx Bot Gard N/A 82 70 65 S3 29.80R LaGuardia APRT CLOUDY 81 74 79 SW14G22 29.77F Kennedy INTL CLOUDY 75 72 90 S9 29.80F Breezy Point N/A 75 N/A N/A SW6 N/A Newark/Liberty CLOUDY 82 73 74 S10 29.77F Teterboro CLOUDY 81 74 79 S12 29.76F $$ NYZ177-179-078>081-231600- LONG ISLAND NEW YORK CITY SKY/WX TMP DP RH WIND PRES REMARKS Jones Beach N/A 70 N/A N/A S7 N/A Matinecock PT NOT AVBL Farmingdale NOT AVBL MacArthur/ISP CLOUDY 77 72 84 S10G26 29.80F Shirley CLOUDY 76 73 91 S13 29.81F Mt Sinai Harb N/A N/A N/A N/A S7 N/A Westhampton PTSUNNY 76 69 79 SW13G18 29.83F East Hampton FAIR 74 69 84 S12 29.81F Montauk N/A 74 69 85 S8 29.83S $$ NYZ052-065-067-231600- HUDSON VALLEY CITY SKY/WX TMP DP RH WIND PRES REMARKS White Plains NOT AVBL Larchmont Harb N/A 73 N/A N/A S16 N/A Croton O-T Hud N/A 81 N/A N/A S6G12 N/A Newburgh PTSUNNY 82 72 69 SW12 29.78F Montgomery CLOUDY 81 72 74 SW8 29.75F Poughkeepsie MOSUNNY 83 70 64 S8 29.74F Albany CLOUDY 80 68 66 S7 29.71F $$ NJZ001-105-106-008-010-013-015-019>022-104-231600- NEW JERSEY CITY SKY/WX TMP DP RH WIND PRES REMARKS Newark/Liberty CLOUDY 82 73 74 S10 29.77F Teterboro CLOUDY 81 74 79 S12 29.76F Caldwell CLOUDY 82 71 69 SW6 29.77F Somerville CLOUDY 80 73 79 SW9G17 29.77F Linden PTSUNNY 80 71 73 SW6 29.78F Perth Amboy N/A 77 N/A N/A SW13 N/A Sussex CLOUDY 80 72 76 SW10G17 29.77F Andover N/A 78 71 79 SW7 29.79F Trenton CLOUDY 77 74 90 S10 29.79F Millville CLOUDY 74 74 100 SW8 29.84F Atlantic City CLOUDY 75 73 93 SW10 29.85 Wrightstown PTSUNNY 78 72 81 SW14 29.78F Toms River LGT RAIN 79 71 76 SW22G30 29.83F Belmar LGT RAIN 77 72 84 SW13G22 29.82F $$ PAZ047>061-062-071-231600- EASTERN PENNSYLVANIA CITY SKY/WX TMP DP RH WIND PRES REMARKS Philadelphia CLOUDY 75 71 87 S17 29.81F Allentown LGT RAIN 77 69 76 SW9G20 29.78F Scranton CLOUDY 78 69 73 VRB7G20 29.75F $$ CTZ002-004>006-009-010-012-RIZ004-006-007-MAZ004-011-015-231600- SOUTHERN NEW ENGLAND IN CT CITY SKY/WX TMP DP RH WIND PRES REMARKS Bradley INTL CLOUDY 87 72 60 S10 29.75F HX 93 Hartford CLOUDY 86 72 62 S13 29.75F HX 92 Danbury CLOUDY 82 72 71 S10 29.78F Wtrbury/Oxford PTSUNNY 81 68 65 SW9 29.82F Bridgeport PTSUNNY 81 72 74 S9 29.77F Meriden CLOUDY 82 72 71 S12 29.77F New Haven CLOUDY 79 72 78 S6 29.79S Chester FAIR 81 72 74 S9G15 29.80F Groton CLOUDY N/A N/A N/A MISG 29.79F HAZE Wilimantic CLOUDY 87 71 58 S8 29.77F HX 93 IN RI CITY SKY/WX TMP DP RH WIND PRES REMARKS Providence PTSUNNY 79 72 79 SE13 29.80F Block Island MOSUNNY 71 67 87 S15 29.83F Westerly MOSUNNY 76 69 79 S9 29.81F IN MA CITY SKY/WX TMP DP RH WIND PRES REMARKS Boston CLOUDY 77 69 76 S10 29.77F Worcester CLOUDY 79 66 64 S12 29.80F Westfield MOSUNNY 84 72 67 S7 N/A Provincetown CLOUDY 74 68 81 S15 29.81F Nantucket MOSUNNY 67 64 90 S13 29.86S $$ ANZ330-335-338-340-345-350-353-355-231600- COASTAL MARINE OBSERVATIONS STATION/POSITION TIME SKY/WX TEMP WIND PRES VSBY WAVE AIR SEA DIR/SP/G HT/PER (UTC) (F) (DEG/KT/KT) (MB) (MI) (FT/S) NY HARB ENTRANCE 1350 69 67 200/ 14/ 16 1009.3 2/ 9 20 S FIRE ISLAND NOT AVBL GREAT SOUTH BAY 1415 72 76 210/ 12/ 12 N/A 23 SSW MONTAUK P 1350 68 64 1010.4 2/ 9 15 E BARNEGAT LI 1430 65 N/A 3/ 4 HUDSON CANYON 1350 69 67 200/ 10/ 12 1011.3 2/ 9 KINGS POINT 1430 74 65 220/ 13/ 16 1008.2 EXECUTION ROCKS 1430 77 180/ 8/ 10 N/A CENTRAL LI SOUND NOT AVBL EASTERN LI SOUND NOT AVBL ROBBINS REEF 1424 200/ 13/ 19 1009.2 $$ >>>>>>>>>>>>>>>>>>>>>>>>>>>> KEY <<<<<<<<<<<<<<<<<<<<<<<<<<< > < > SKY/WX - Sky Condition/Present Weather < > TMP - Temperature in Fahrenheit < > DP - Dew Point in Fahrenheit < > RH - Relative Humidity in Percent < > WIND - Direction (from) and Speed in MPH < > PRES - Mean Sea Level Pressure (inches of Hg) < > WCI - Wind Chill Index < > VSB - VISIBILITY IN MILES < > HX - HEAT INDEX < > TC - TEMPERATURE IN CELSIUS < > VRB - VARIABLE WIND DIRECTION < > < >>>>>>>>>>>>>>>>>>>>>>>>>>>> KEY <<<<<<<<<<<<<<<<<<<<<<<<<<<

USA.gov is the U.S. government's official web portal to all federal, state and local government web resources and services.